115P/Maury (2020)

Japanese version
Home page
Updated on November 15, 2021

---------------------------------------------------------------------

* Profile

* Pictures

* Orbital Elements

Epoch 2021 July 5.0 TT = JDT 2459400.5
T 2020 July 29.60829 TT                                 Rudenko
q   2.0567263            (2000.0)            P               Q
n   0.11161635     Peri.  120.97587     +0.45501187     +0.89037402
a   4.2721928      Node   176.01041     -0.87036968     +0.44802007
e   0.5185783      Incl.   11.67766     -0.18820420     +0.08069773
P   8.83
From 1429 observations 1985 Aug. 17-2021 Jan. 8, mean residual 0".7.
     Nongravitational parameters A1 = +0.60, A2 = -0.0302.

* Finding Charts

* Magnitudes Graph

        m1 = 10.5 + 5 log d + 15.0 log r

---------------------------------------------------------------------

The orbital elements are published on M.P.E.C. 2021-U109.
The charts are made with StellaNavigator Ver.10 (AstroArts).
The magnitudes graphs are made with Comet for Windows.

---------------------------------------------------------------------

Copyright(C) Seiichi Yoshida (comet@aerith.net). All rights reserved.